Location: Krakow
(50.0830°N, 19.9170°E)
Time: 08:03:13
(UTC+01:00)

BlueWalker 3 - Visible Passes

Search period start: 18 January 2026 00:00
Search period end: 28 January 2026 00:00
Orbit: 451 x 463 km, 53.2° (Epoch: 17 January)

Date Brightness Start Highest point End Pass type
(mag) Time Alt. Az. Time Alt. Az. Time Alt. Az.
20 Jan 4.3 18:58:56 10° SSW 18:59:37 14° SSW 18:59:37 14° SSW visible
21 Jan 3.2 18:23:47 10° SSW 18:26:00 25° SSE 18:26:00 25° SSE visible
22 Jan 3.1 17:48:42 10° SSW 17:51:35 23° SE 17:52:19 22° ESE visible
22 Jan 4.5 19:25:11 10° WSW 19:26:04 17° WSW 19:26:04 17° WSW visible
23 Jan 3.5 17:13:43 10° S 17:16:17 19° SE 17:18:33 11° E visible
23 Jan 2.8 18:49:47 10° WSW 18:52:17 43° WSW 18:52:17 43° WSW visible
24 Jan 1.7 18:14:24 10° SW 18:17:57 68° SSE 18:18:27 58° ESE visible
24 Jan 5.2 19:52:04 10° W 19:52:11 11° W 19:52:11 11° W visible
25 Jan 2.0 17:39:03 10° SW 17:42:33 57° SSE 17:44:32 23° E visible
25 Jan 3.9 19:16:34 10° W 19:18:16 25° WNW 19:18:16 25° WNW visible
26 Jan 2.3 17:03:42 10° SW 17:07:09 46° SSE 17:10:35 10° ENE visible
26 Jan 2.2 18:41:05 10° W 18:44:19 56° NW 18:44:19 56° NW visible
27 Jan 1.9 18:05:34 10° W 18:09:07 65° NNW 18:10:19 38° NE visible
27 Jan 4.9 19:43:26 10° WNW 19:44:03 14° WNW 19:44:03 14° WNW visible
